Temperature
26 23 23 23 24 25 24 24 24 24 24 24 23 22 21 21 21 21 21 21 21 21 22 21 21 21 20 20 20 20 19 19 19 19 18 18 18 18 18 18 18 18 18 18
24 24 25 24 24 25 25 25 24 24 25 24 23 22 22 21 21 21 21 21 21 22 22 22 21 21 21 20 20 20 20 19 19 19 19 18 18 18 18 18 18 18 18 18
25 25 25 25 25 25 25 24 24 24 24 23 23 23 22 22 22 22 22 22 22 22 22 22 22 21 21 21 20 20 20 20 19 19 19 18 18 18 18 18 18 18 17 17
24 25 26 26 25 25 24 25 25 24 23 22 23 22 22 22 21 21 22 22 22 23 23 23 22 22 21 21 21 20 20 20 19 19 19 19 18 18 18 18 18 18 18 17
24 25 26 25 26 25 25 25 24 23 22 21 22 22 22 21 22 21 22 23 23 23 23 23 23 23 22 22 21 21 20 20 20 19 19 19 19 18 18 18 18 18 17 17
24 25 26 26 26 25 24 23 22 20 20 22 22 22 22 21 22 22 23 23 24 24 24 24 24 23 23 22 21 21 21 20 20 20 19 19 19 18 18 18 18 18 18 17
25 25 25 26 25 25 24 22 21 22 20 21 21 21 21 22 22 23 23 24 25 24 24 24 24 23 23 22 22 22 21 21 20 20 20 19 19 19 18 18 18 18 18 18
23 23 25 25 25 24 23 22 22 22 21 21 21 21 22 23 24 24 25 25 25 25 24 24 25 24 24 23 23 22 22 21 21 20 20 19 19 19 19 18 18 18 18 18
22 23 25 25 25 24 23 21 21 19 20 21 21 21 22 23 23 23 24 25 25 25 25 25 25 25 24 24 23 23 22 21 21 20 20 20 19 19 19 18 18 18 18 18
22 23 24 24 24 23 22 20 19 19 20 21 22 22 22 24 24 23 22 23 24 25 25 25 25 25 24 24 23 23 22 22 21 21 20 20 20 19 19 18 18 18 18 18
22 23 24 24 24 24 22 21 18 17 19 20 22 22 22 22 23 22 23 24 24 25 25 25 25 25 25 24 23 23 23 22 21 21 21 20 20 19 19 19 18 18 18 18
20 19 21 23 23 23 23 21 19 21 20 18 20 21 23 22 22 22 23 24 24 25 25 25 25 25 24 24 24 23 23 22 22 21 21 20 20 19 19 19 19 18 18 18
19 19 21 22 22 22 22 21 19 18 17 17 20 23 23 22 22 23 23 24 24 24 25 25 25 25 24 24 24 23 23 22 22 21 21 20 20 20 19 19 19 18 18 18
19 18 20 21 21 21 22 21 20 19 19 19 20 22 23 22 21 22 23 23 24 24 25 25 24 24 24 24 24 23 23 22 22 21 21 20 20 20 19 19 18 18 18 18
18 19 20 20 22 22 23 22 21 21 20 20 21 21 22 21 21 22 23 23 24 24 25 25 25 24 24 24 24 23 23 22 22 21 21 20 20 19 19 19 18 18 18 17
16 18 20 21 21 22 23 22 22 22 21 21 22 22 21 21 22 22 23 23 23 24 25 25 25 25 24 24 24 24 23 23 22 21 21 20 20 19 19 19 18 18 18 17
14 17 18 19 20 22 22 22 22 22 21 21 22 22 21 21 21 22 23 24 24 25 25 25 25 25 25 24 24 24 23 23 22 21 21 20 20 19 19 18 18 18 18 17
15 14 15 17 20 21 21 21 22 22 21 20 21 21 20 21 23 24 25 25 25 25 25 25 25 25 25 24 24 23 23 22 22 21 21 20 20 19 19 19 18 18 17 17
13 14 14 15 18 20 21 21 21 21 21 20 20 20 21 22 22 23 24 25 25 25 25 26 25 25 25 24 24 23 23 22 22 21 21 20 20 19 19 18 18 18 17 17
13 13 14 15 18 19 20 21 21 21 21 20 19 19 20 21 20 21 24 24 24 24 25 25 25 25 24 24 24 23 23 22 22 21 21 20 20 19 19 18 18 18 17 17
15 14 15 15 17 18 19 20 21 21 20 21 21 21 20 20 21 23 24 24 24 24 24 24 24 24 24 24 23 23 22 22 22 21 20 20 20 19 19 18 18 17 17 17
15 14 14 14 17 18 19 19 19 19 20 21 21 21 21 21 22 23 23 24 24 24 24 24 23 23 23 23 23 22 22 22 21 21 20 20 19 19 18 18 18 17 17 17
13 14 13 15 16 17 18 19 20 21 20 21 21 21 21 21 21 22 23 23 23 23 23 23 23 23 22 22 22 22 22 21 21 20 20 19 19 18 18 18 17 17 17 16
13 13 13 14 15 16 18 19 20 20 20 21 21 21 21 21 21 21 22 22 22 22 22 22 22 22 22 22 22 21 21 21 20 20 19 19 18 18 18 18 17 17 17 16
13 13 13 14 15 16 17 18 19 19 20 20 21 21 21 21 21 21 21 22 22 21 21 21 21 21 21 21 21 21 20 20 20 19 19 18 18 18 17 17 17 17 17 16
12 12 13 14 15 15 16 18 18 19 19 20 20 20 20 20 20 21 21 21 21 21 21 21 21 21 21 20 20 20 20 19 19 19 18 18 18 17 17 17 17 17 16 16
Wind_Speed
4 5 4 8 8 6 6 5 3 3 3 5 4 4 7 10 9 9 9 9 9 10 8 7 7 7 6 5 5 5 5 4 3 2 2 1 1 0 0 0 1 1 1 1
5 3 7 7 6 5 5 4 2 1 2 4 2 3 4 9 11 11 11 11 11 9 7 7 7 7 7 7 6 5 5 4 4 3 2 2 2 1 1 1 1 1 1 1
7 6 5 6 5 4 3 6 6 4 3 4 3 4 2 5 7 8 9 10 10 12 11 9 9 8 8 8 8 7 6 5 4 4 3 3 3 2 1 1 1 2 1 1
4 4 5 6 5 6 4 5 6 6 5 1 2 2 6 4 6 9 11 11 12 11 11 10 10 9 9 9 8 7 6 5 4 4 4 4 3 2 2 1 1 2 2 1
5 3 5 5 5 7 5 4 5 5 5 3 2 2 7 2 6 11 13 14 13 13 12 12 12 11 10 9 8 7 6 5 5 5 5 5 3 2 1 0 1 1 2 2
4 2 3 5 3 6 7 8 8 7 5 1 3 3 6 5 9 8 10 13 13 13 12 11 10 8 8 8 8 7 7 6 5 5 5 6 5 4 2 1 1 1 1 1
2 2 1 4 5 4 7 7 4 4 3 5 2 3 9 9 9 10 11 12 13 12 12 11 11 10 10 9 9 8 8 7 6 6 6 6 6 5 4 3 2 1 0 1
4 4 4 4 6 7 6 9 8 6 5 4 1 5 8 7 7 7 7 7 9 11 11 12 12 12 11 11 10 9 9 8 7 7 6 5 5 4 3 3 3 2 2 2
7 5 3 2 3 10 7 4 7 8 4 1 5 7 9 4 4 2 3 6 9 10 12 12 11 11 10 10 10 10 10 9 8 7 6 5 5 5 4 3 3 2 2 1
8 3 3 1 6 6 6 10 7 7 6 2 5 5 5 6 5 3 3 6 7 8 10 10 10 11 10 10 9 9 9 9 8 8 7 6 5 5 4 3 3 3 2 1
5 5 2 2 4 6 5 6 6 6 6 7 3 7 6 8 6 6 6 6 7 8 10 10 10 9 9 8 8 9 8 8 7 8 7 6 5 5 4 4 4 3 2 2
4 6 2 4 3 3 5 7 8 6 4 5 5 7 6 6 6 6 6 5 5 7 8 8 9 8 9 9 8 9 8 8 8 8 7 7 5 5 5 5 4 4 3 2
5 7 3 3 4 3 4 4 5 7 6 6 5 7 4 2 2 3 5 6 6 6 7 7 7 8 9 9 9 8 8 8 7 7 7 6 6 6 6 5 4 4 4 3
5 5 7 10 8 4 3 3 5 7 5 6 7 7 7 4 4 4 4 5 6 7 7 8 8 8 8 8 8 8 8 8 8 7 8 7 7 7 6 5 5 4 4 4
5 5 3 4 4 4 4 5 7 6 9 9 8 8 9 7 6 6 4 6 6 6 7 8 9 8 8 8 7 8 8 7 8 8 8 8 6 6 5 5 5 4 4 4
4 5 3 1 2 3 2 4 7 5 5 5 4 7 7 4 2 3 5 7 8 8 8 8 8 8 9 9 9 8 8 8 8 8 8 7 6 6 6 6 5 4 4 3
2 5 5 3 2 3 3 4 6 4 3 6 6 7 3 2 4 7 8 8 9 9 8 8 9 10 10 10 9 10 9 8 8 8 7 7 7 7 7 6 5 5 5 4
5 4 4 3 3 6 8 4 4 5 3 3 5 5 4 6 6 5 6 8 8 8 8 8 8 9 8 8 8 8 8 8 8 8 7 7 7 7 6 6 6 5 4 4
5 7 5 5 5 4 5 2 4 4 3 2 3 4 2 0 2 3 3 5 7 8 7 7 8 7 8 9 9 8 8 8 8 8 8 8 8 7 6 7 7 5 5 5
4 5 6 5 5 7 8 4 2 5 2 3 2 3 1 4 2 5 4 2 3 2 3 4 5 6 7 8 9 9 8 8 9 9 8 8 8 8 7 7 6 4 4 5
4 3 4 5 4 6 7 4 3 5 7 4 2 3 3 4 6 5 2 1 1 2 3 5 6 6 7 8 10 9 8 9 8 6 6 6 7 7 7 6 5 4 4 4
6 5 5 5 4 6 4 2 6 6 3 2 2 3 3 4 3 1 0 2 3 3 4 5 6 5 5 7 9 9 9 7 6 6 6 6 6 6 6 5 5 5 5 5
4 6 6 7 6 4 2 2 2 2 2 2 2 2 2 1 2 1 1 2 3 4 4 5 6 5 4 6 8 8 6 6 6 6 6 6 6 5 6 6 6 5 5 5
2 1 3 1 3 2 2 2 2 0 1 1 1 1 1 1 2 1 1 1 2 2 3 4 5 5 4 5 6 6 5 6 7 7 6 6 6 5 5 5 6 6 6 6
3 1 1 1 3 2 3 3 2 2 2 2 2 1 1 1 1 2 2 2 2 2 3 4 5 5 5 4 5 5 5 6 6 6 6 5 6 6 6 5 6 7 7 8
3 4 3 5 5 3 4 5 3 2 2 1 1 2 2 1 2 1 2 3 3 3 3 3 3 4 4 4 4 4 5 6 6 5 5 5 5 5 5 5 4 7 8 9
Wind_Direction
60 90 166 192 182 167 158 153 179 231 191 156 197 215 194 185 191 201 205 205 210 219 215 201 197 188 179 181 180 180 174 174 153 142 147 139 150 79 22 264 267 261 245 193
58 219 208 170 156 132 141 144 168 16 100 145 183 248 206 193 202 204 206 207 210 216 207 199 194 187 185 189 189 186 186 181 176 170 159 151 140 125 121 8 1 300 256 220
181 219 161 143 149 143 174 176 180 165 83 60 84 337 236 220 209 212 214 213 210 210 207 201 196 195 192 193 193 196 195 187 180 162 123 100 79 57 37 1 337 326 310 280
211 228 156 155 172 155 215 210 166 144 114 30 92 267 280 227 220 220 219 215 214 213 205 200 197 197 198 200 191 189 187 182 175 158 152 154 160 175 208 234 288 337 348 316
223 190 157 175 194 162 188 118 113 116 112 68 39 139 285 257 240 237 225 218 215 209 202 201 200 199 198 192 184 183 180 182 175 166 167 162 170 184 178 174 322 339 347 326
222 221 177 180 151 141 123 80 62 53 69 22 240 168 275 237 227 241 227 218 213 207 200 199 197 190 190 184 180 178 178 186 179 173 174 175 180 179 166 187 265 310 328 329
316 303 250 140 97 75 102 101 58 21 14 253 245 193 249 248 232 227 229 221 210 201 194 191 188 188 188 184 184 181 179 188 185 180 184 185 185 182 189 199 208 217 265 295
163 253 230 182 162 164 165 139 153 177 206 268 308 233 254 263 257 237 224 212 196 191 192 193 191 189 191 189 185 182 183 190 187 184 189 188 183 185 197 202 198 201 209 231
165 231 274 203 153 138 138 153 151 129 133 138 276 285 300 288 304 259 197 184 193 191 190 191 188 187 189 188 189 187 186 189 188 187 185 187 187 188 196 195 191 200 212 207
150 188 269 236 86 43 132 139 106 119 139 207 287 281 259 277 271 255 205 200 201 188 183 184 186 186 187 187 184 184 186 188 187 186 190 194 193 195 192 183 188 193 200 184
133 151 287 84 153 166 108 101 107 114 142 152 219 267 232 229 233 226 222 208 196 183 183 184 186 184 177 173 176 182 182 178 182 185 186 188 187 187 184 189 198 196 193 180
135 129 188 249 269 173 141 152 144 147 183 162 170 260 267 238 237 218 212 200 189 178 176 176 177 173 172 175 178 181 181 184 188 186 184 187 183 176 183 195 200 194 193 189
134 122 121 345 357 34 96 126 130 122 119 148 167 258 305 332 281 228 199 190 176 165 164 162 162 169 176 179 181 180 181 186 184 179 180 181 182 182 192 198 194 189 189 191
122 117 163 192 204 185 158 146 145 127 144 180 211 244 293 296 273 255 210 185 173 171 169 166 168 175 180 181 178 177 177 176 173 171 175 182 190 191 194 192 190 190 186 189
106 136 164 197 199 171 178 179 172 171 176 178 216 223 248 246 236 230 203 177 169 174 175 180 179 179 177 174 174 175 174 171 168 168 178 188 188 183 180 182 188 190 190 197
62 136 141 194 209 178 173 192 182 184 178 193 202 245 252 252 228 205 191 178 184 192 190 188 183 179 181 181 180 177 175 172 166 173 185 184 176 176 182 187 187 188 193 195
57 121 130 211 262 114 224 212 184 181 185 168 199 238 253 230 224 213 203 195 202 202 193 187 188 190 188 185 180 180 177 166 168 177 181 182 182 185 190 190 187 196 203 203
139 120 131 146 120 193 234 235 178 166 198 204 226 252 230 223 233 234 209 201 210 204 196 195 192 190 183 175 172 169 163 164 171 177 182 185 187 191 188 186 195 204 204 205
158 137 125 133 165 245 289 232 159 161 246 230 236 273 267 297 41 317 240 211 215 210 202 196 187 182 172 168 163 156 162 166 173 184 190 190 187 189 191 198 205 208 204 211
86 104 120 131 153 209 235 251 218 132 248 275 213 239 211 113 133 256 269 250 241 209 180 176 163 157 164 168 157 157 169 175 191 197 196 190 186 189 197 204 207 206 203 212
99 92 133 149 182 244 250 270 114 155 231 271 228 212 183 191 216 248 255 212 188 165 152 146 142 158 173 165 157 166 176 195 203 193 186 186 189 193 198 198 198 195 197 201
168 154 170 149 168 239 276 121 161 205 230 225 234 219 207 239 267 306 120 155 138 128 127 142 148 162 164 159 163 176 195 200 180 174 182 190 191 197 199 193 197 191 190 201
195 189 182 184 202 239 275 196 216 180 192 238 233 245 207 249 274 268 221 173 161 155 153 152 155 156 161 167 170 185 199 174 167 173 188 194 194 197 195 195 198 196 196 208
280 154 145 208 260 279 313 327 336 328 220 276 256 248 156 219 257 237 221 192 165 169 162 149 145 159 179 181 180 190 182 169 171 184 195 194 196 205 203 202 201 202 205 211
255 210 128 232 264 330 336 330 324 351 13 18 16 347 221 175 212 216 205 201 187 191 180 164 166 179 190 185 186 184 175 168 178 190 198 199 201 206 211 211 212 211 215 210
230 195 180 222 228 208 267 297 318 353 1 357 40 8 345 225 186 177 186 202 185 183 173 163 169 177 183 181 186 186 181 175 179 191 201 207 208 209 211 214 229 231 225 221
Height
1494 1501 1509 1508 1506 1509 1513 1519 1523 1520 1514 1518 1523 1524 1523 1524 1527 1528 1529 1531 1532 1533 1536 1538 1540 1542 1544 1545 1547 1548 1549 1550 1551 1552 1553 1553 1554 1554 1555 1555 1555 1555 1555 1555
1500 1505 1499 1499 1503 1507 1512 1519 1521 1518 1513 1518 1523 1524 1521 1522 1523 1524 1526 1528 1529 1531 1534 1536 1538 1540 1542 1544 1546 1547 1548 1550 1551 1552 1553 1553 1554 1554 1555 1555 1555 1555 1555 1555
1500 1499 1495 1500 1504 1509 1513 1516 1519 1520 1518 1519 1523 1528 1523 1520 1521 1523 1524 1525 1526 1528 1531 1533 1536 1538 1540 1543 1544 1546 1547 1549 1550 1551 1552 1553 1554 1554 1554 1555 1555 1555 1555 1555
1496 1493 1495 1499 1503 1506 1516 1508 1511 1516 1526 1535 1529 1545 1527 1521 1520 1519 1519 1521 1522 1525 1528 1531 1533 1536 1538 1541 1543 1545 1547 1548 1549 1551 1551 1552 1553 1553 1554 1554 1554 1554 1554 1554
1496 1492 1494 1500 1499 1500 1507 1505 1511 1517 1527 1537 1535 1543 1534 1522 1521 1515 1514 1515 1517 1521 1524 1527 1530 1533 1536 1539 1541 1543 1545 1547 1548 1549 1550 1551 1552 1553 1553 1553 1553 1553 1553 1553
1491 1489 1490 1493 1494 1496 1501 1510 1519 1527 1534 1548 1539 1543 1539 1524 1515 1509 1508 1510 1512 1516 1520 1524 1527 1531 1534 1536 1539 1541 1543 1545 1547 1548 1549 1550 1551 1552 1552 1552 1552 1553 1552 1552
1496 1491 1489 1489 1497 1500 1504 1522 1544 1549 1557 1553 1537 1539 1533 1509 1504 1503 1502 1504 1508 1512 1516 1520 1524 1527 1530 1533 1536 1538 1541 1543 1545 1546 1547 1548 1550 1550 1551 1551 1551 1551 1551 1551
1506 1508 1491 1489 1493 1502 1507 1516 1541 1555 1559 1551 1539 1539 1519 1501 1498 1498 1499 1501 1505 1509 1513 1517 1520 1524 1528 1531 1533 1536 1538 1541 1543 1544 1545 1547 1548 1549 1549 1550 1550 1550 1550 1550
1505 1505 1488 1486 1487 1493 1507 1516 1518 1538 1546 1551 1544 1531 1512 1498 1496 1496 1497 1499 1502 1505 1509 1513 1518 1521 1525 1528 1531 1534 1536 1538 1540 1542 1544 1545 1546 1547 1548 1548 1549 1549 1549 1549
1491 1501 1491 1487 1488 1494 1498 1509 1525 1538 1553 1556 1543 1535 1525 1504 1499 1496 1496 1497 1499 1502 1506 1511 1515 1518 1522 1526 1529 1532 1534 1536 1538 1540 1541 1543 1544 1545 1546 1547 1547 1548 1548 1548
1486 1498 1497 1492 1495 1500 1504 1512 1522 1535 1537 1551 1552 1537 1505 1500 1496 1496 1495 1495 1497 1500 1504 1508 1512 1516 1519 1523 1526 1529 1531 1534 1536 1537 1539 1540 1541 1543 1544 1545 1546 1546 1546 1547
1487 1498 1506 1498 1491 1489 1493 1504 1515 1528 1538 1542 1544 1532 1493 1493 1492 1492 1493 1494 1496 1499 1502 1506 1510 1513 1517 1520 1523 1526 1529 1531 1533 1535 1536 1538 1539 1541 1542 1543 1544 1545 1545 1545
1485 1498 1512 1511 1506 1497 1498 1502 1507 1517 1532 1542 1542 1524 1492 1491 1490 1490 1491 1493 1495 1498 1501 1504 1507 1511 1514 1517 1521 1524 1526 1529 1531 1533 1534 1535 1537 1538 1540 1541 1542 1543 1543 1544
1480 1496 1504 1512 1507 1500 1500 1501 1505 1512 1527 1533 1528 1514 1497 1493 1492 1490 1490 1492 1494 1497 1500 1502 1505 1508 1512 1515 1518 1521 1524 1527 1529 1530 1531 1533 1535 1536 1538 1539 1540 1541 1542 1542
1480 1494 1494 1494 1491 1493 1494 1497 1501 1503 1509 1516 1512 1509 1497 1491 1490 1489 1489 1491 1493 1496 1498 1501 1503 1506 1509 1513 1516 1519 1522 1524 1526 1528 1529 1531 1533 1534 1536 1537 1538 1539 1540 1540
1485 1493 1494 1494 1491 1490 1493 1493 1495 1497 1499 1502 1502 1501 1489 1488 1488 1488 1489 1490 1491 1493 1496 1499 1502 1505 1507 1510 1513 1516 1519 1522 1524 1526 1527 1529 1531 1532 1533 1535 1536 1537 1538 1538
1491 1494 1501 1504 1495 1492 1501 1493 1493 1493 1493 1495 1500 1494 1487 1487 1486 1485 1486 1487 1489 1491 1493 1496 1499 1502 1505 1508 1512 1514 1517 1520 1522 1523 1525 1527 1528 1529 1531 1532 1533 1534 1535 1536
1491 1497 1505 1507 1502 1511 1497 1484 1484 1488 1489 1489 1488 1486 1485 1484 1483 1483 1484 1485 1487 1489 1492 1494 1497 1500 1503 1506 1510 1513 1515 1517 1519 1521 1523 1524 1526 1527 1528 1529 1530 1531 1532 1532
1485 1493 1505 1511 1511 1504 1491 1482 1483 1488 1490 1485 1485 1483 1482 1482 1483 1483 1483 1484 1485 1487 1489 1492 1495 1499 1501 1504 1507 1510 1513 1515 1517 1518 1520 1521 1523 1524 1525 1526 1527 1528 1528 1529
1486 1489 1501 1508 1508 1511 1492 1478 1477 1482 1491 1482 1481 1481 1482 1482 1488 1484 1481 1482 1483 1486 1488 1491 1493 1497 1499 1502 1505 1508 1510 1512 1514 1515 1517 1518 1520 1521 1522 1523 1524 1524 1525 1525
1492 1496 1501 1504 1504 1497 1481 1476 1477 1494 1491 1480 1479 1479 1480 1481 1482 1481 1480 1481 1482 1484 1487 1489 1491 1494 1497 1500 1502 1505 1507 1509 1511 1513 1514 1516 1517 1518 1519 1520 1520 1521 1521 1522
1490 1496 1500 1503 1502 1497 1476 1476 1481 1482 1477 1477 1478 1478 1479 1478 1478 1478 1479 1480 1481 1483 1485 1487 1490 1492 1495 1497 1499 1502 1504 1506 1508 1510 1511 1512 1513 1514 1515 1516 1517 1517 1518 1518
1486 1485 1487 1488 1488 1478 1475 1475 1475 1475 1476 1476 1476 1476 1477 1477 1477 1477 1478 1479 1480 1482 1484 1486 1488 1490 1492 1494 1496 1499 1501 1503 1505 1506 1508 1509 1510 1511 1511 1512 1512 1513 1514 1514
1482 1480 1482 1483 1478 1475 1474 1474 1473 1474 1474 1474 1474 1475 1475 1475 1475 1476 1477 1478 1479 1480 1482 1484 1486 1487 1489 1491 1493 1496 1498 1499 1501 1502 1504 1505 1505 1506 1507 1508 1508 1509 1509 1510
1481 1479 1480 1480 1476 1474 1473 1473 1473 1473 1473 1473 1473 1473 1474 1473 1473 1474 1475 1476 1477 1478 1480 1481 1483 1485 1486 1488 1491 1493 1494 1496 1497 1498 1499 1500 1501 1502 1502 1503 1503 1504 1504 1505
1478 1478 1479 1478 1474 1474 1473 1472 1472 1471 1471 1471 1472 1472 1472 1473 1472 1473 1473 1474 1475 1476 1478 1479 1480 1482 1484 1485 1487 1489 1491 1492 1493 1493 1494 1495 1496 1497 1497 1498 1498 1498 1499 1500